Weather History for Crestview, FL

Change the Weather History Date:

Friday, November 29, 2013

  Actual Average Record
Temperature  
Mean Temperature 44 °F -  
Max Temperature 62 °F 66 °F 79 °F (1949)
Min Temperature 26 °F 40 °F 21 °F (1993)
Degree Days  
Heating Degree Days 21    
Moisture  
Dew Point 28 °F    
Average Humidity 69    
Maximum Humidity 92    
Minimum Humidity 25    
Precipitation  
Precipitation 0.00 in - - ()
Sea Level Pressure  
Sea Level Pressure 30.47 in    
Wind  
Wind Speed 2 mph (NE)    
Max Wind Speed 8 mph    
Max Gust Speed -    
Visibility 10 miles    
Events      
Averages and records for this station are not official NWS values.
T = Trace of Precipitation, MM = Missing Value Source: NWS Daily Summary

Daily Weather History Graph

Daily Weather History Graph

Search for Another Location

Airport:

Trip Planner

Search our weather history database for the weather conditions in past years. The results will help you decide how hot, cold, wet, or windy it might be!

Date:

Astronomy

Nov. 29, 2013 Rise Set
Actual Time 6:24 AM CST 4:44 PM CST
Civil Twilight 5:58 AM CST 5:10 PM CST
Nautical Twilight 5:28 AM CST 5:40 PM CST
Astronomical Twilight 4:59 AM CST 6:09 PM CST
Moon 2:42 AM CST (11/29) 2:17 PM CST (11/29)
Length of Visible Light 11h 12m
Length of Day
10h 19m
Waning Crescent, 14% of the Moon is Illuminated
Nov 29
Waning Crescent
Dec 2
New
Dec 9
First Quarter
Dec 17
Full
Dec 25
Last Quarter

Hourly Weather History & Observations

Time (CST) Temp. Windchill Dew Point Humidity Pressure Visibility Wind Dir Wind Speed Gust Speed Precip Events Conditions
12:53 AM 30.0 °F - 27.0 °F 88% 30.48 in 10.0 mi Calm Calm - N/A   Clear
1:53 AM 28.0 °F - 25.0 °F 88% 30.47 in 10.0 mi Calm Calm - N/A   Clear
2:53 AM 27.0 °F - 25.0 °F 92% 30.47 in 10.0 mi Calm Calm - N/A   Clear
3:53 AM 27.0 °F - 24.1 °F 89% 30.48 in 10.0 mi Calm Calm - N/A   Clear
4:53 AM 26.1 °F - 23.0 °F 88% 30.48 in 10.0 mi Calm Calm - N/A   Clear
5:53 AM 26.1 °F - 23.0 °F 88% 30.50 in 10.0 mi Calm Calm - N/A   Clear
6:53 AM 27.0 °F - 24.1 °F 89% 30.52 in 10.0 mi Calm Calm - N/A   Clear
7:53 AM 37.0 °F - 32.0 °F 82% 30.53 in 10.0 mi Calm Calm - N/A   Clear
8:53 AM 46.0 °F 42.5 °F 30.0 °F 54% 30.54 in 10.0 mi ENE 6.9 mph - N/A   Clear
9:53 AM 52.0 °F - 28.0 °F 40% 30.54 in 10.0 mi ENE 8.1 mph - N/A   Clear
10:53 AM 55.0 °F - 26.1 °F 33% 30.51 in 10.0 mi ENE 8.1 mph - N/A   Clear
11:53 AM 59.0 °F - 27.0 °F 29% 30.48 in 10.0 mi Variable 4.6 mph - N/A   Clear
12:53 PM 60.1 °F - 26.1 °F 27% 30.44 in 10.0 mi Variable 4.6 mph - N/A   Clear
1:53 PM 61.0 °F - 26.1 °F 26% 30.44 in 10.0 mi Variable 5.8 mph - N/A   Clear
2:53 PM 62.1 °F - 26.1 °F 25% 30.43 in 10.0 mi NE 8.1 mph - N/A   Clear
3:53 PM 60.1 °F - 27.0 °F 28% 30.43 in 10.0 mi ENE 4.6 mph - N/A   Clear
4:53 PM 48.9 °F - 36.0 °F 61% 30.44 in 10.0 mi North 3.5 mph - N/A   Clear
5:53 PM 41.0 °F - 35.1 °F 79% 30.45 in 10.0 mi Calm Calm - N/A   Clear
6:53 PM 37.9 °F - 35.1 °F 89% 30.46 in 10.0 mi Calm Calm - N/A   Clear
7:53 PM 36.0 °F - 33.1 °F 89% 30.47 in 10.0 mi Calm Calm - N/A   Clear
8:53 PM 34.0 °F - 32.0 °F 92% 30.47 in 8.0 mi Calm Calm - N/A   Clear
9:53 PM 32.0 °F - 30.0 °F 92% 30.45 in 7.0 mi Calm Calm - N/A   Clear
10:53 PM 30.9 °F - 28.0 °F 89% 30.45 in 6.0 mi Calm Calm - N/A   Clear
11:53 PM 30.9 °F - 28.0 °F 89% 30.45 in 7.0 mi Calm Calm - N/A   Clear